Flag for United Kingdom Weather past 2 weeks in Salisbury, England, United Kingdom

Now
43 °F

Fog.


Feels Like: 35 °F
Forecast: 41 / 51 °F
Wind: 16 mph from South

Location: Boscombe Down

Current Time: Feb 28, 2015 at 7:24:03 AM

Latest Report: Feb 28, 2015 at 6:50 AM


Visibility: 3 mi

Pressure: 29.83 "Hg

Humidity: 100%

Dew point: 43 °F

Location of SalisburyLocation

Historic Weather in Salisbury — Graph

°F

Salisbury temperature yesterday

Maximum temperature yesterday: 48 °F (at 12:50 PM)
Minimum temperature yesterday: 32 °F (at 1:50 AM)
Average temperature yesterday: 39 °F

Past Weeks' High & Low Weather Summary

 TemperatureHumidityPressure
High54 °F (Feb 25, 1:07 PM)100% (Feb 13, 3:50 PM)30.74 "Hg (Feb 13, 3:50 PM)
Low27 °F (Feb 22, 5:50 AM)50% (Feb 17, 3:50 PM)29.27 "Hg (Feb 23, 1:10 PM)
Average41 °F87%29.87 "Hg
* Reported Feb 13 5:50 AM — Feb 28 5:50 AM, Salisbury, Weather by CustomWeather, © 2015

Note: Actual official high and low records may vary slightly from our data, if they occured in-between our weather recording intervals... More about our weather records

Advertising

Salisbury weather history for previous 24 hours

 ConditionsComfort  
Time TempWeatherWind HumidityBarometerVisibility
5:50 AM
Sat, Feb 28
43 °FFog.15 mph100%29.86 "Hg2 mi
4:50 AM43 °FFog.14 mph100%29.89 "Hg2 mi
3:50 AM43 °FFog.15 mph93%29.92 "Hg2 mi
2:50 AM43 °FLow clouds.15 mph93%29.92 "Hg4 mi
1:50 AM43 °FPassing clouds.15 mph87%29.95 "HgN/A
12:50 AM43 °FPassing clouds.13 mph93%29.98 "HgN/A
11:50 PM
Fri, Feb 27
41 °FPassing clouds.12 mph93%30.01 "Hg5 mi
10:50 PM41 °FPassing clouds.12 mph87%30.04 "HgN/A
9:50 PM39 °FPassing clouds.8 mph87%30.07 "HgN/A
8:50 PM41 °FMostly cloudy.8 mph81%30.07 "HgN/A
7:50 PM41 °FOvercast.8 mph81%30.09 "HgN/A
6:50 PM41 °FPassing clouds.6 mph76%30.09 "HgN/A
5:50 PM43 °FPassing clouds.9 mph66%30.09 "HgN/A
4:50 PM45 °FPartly sunny.8 mph61%30.09 "HgN/A
3:50 PM46 °FPartly sunny.9 mph57%30.09 "HgN/A
2:50 PM46 °FScattered clouds.9 mph53%30.09 "HgN/A
1:50 PM46 °FScattered clouds.12 mph50%30.12 "HgN/A
12:50 PM48 °FPassing clouds.9 mph58%30.12 "HgN/A
11:50 AM46 °FPassing clouds.13 mph57%30.15 "HgN/A
10:50 AM43 °FPassing clouds.14 mph66%30.12 "HgN/A
9:50 AM41 °FSunny.13 mph76%30.12 "Hg10 mi
8:50 AM37 °FSunny.8 mph81%30.12 "Hg10 mi
7:50 AM34 °FSunny.5 mph87%30.12 "Hg10 mi
Weather by CustomWeather, © 2015

See weather overviewHow to use our weather pages